Regional Weather Roundup
Issued by NWS Green Bay, WI

Home | Current Version | Previous Version | Graphics & Text | Print | Product List | Glossary Off
Versions: 1 2 3 4 5 6 7 8 9 10 11 12 13 14 15 16 17 18 19 20 21 22 23 24 25 26 27 28 29 30 31 32 33 34 35 36 37 38 39 40 41 42 43 44 45 46 47 48 49 50

000
ASUS43 KGRB 310510
RWRGRB

NORTH-CENTRAL AND NORTHEAST WISCONSIN REGIONAL WEATHER ROUNDUP
NATIONAL WEATHER SERVICE GREEN BAY WI
1100 PM CST FRI JAN 30 2015

WIZ005-009-010>012-018-019-310600-
NORTH CENTRAL WISCONSIN

CITY           SKY/WX    TMP DP  RH WIND       PRES   REMARKS
IRONWOOD       CLOUDY    18   7  62 SW9       30.13F WCI   6
MANITOWISH WTR CLOUDY    14   5  67 SW7       30.15F WCI   4
ARBOR VITAE    CLOUDY    17   9  70 SW5       30.16F WCI  10
EAGLE RIVER    MOCLDY    15   4  62 SW7       30.16F WCI   5
LAND O LAKES   CLOUDY    15   6  65 SW5       30.15F WCI   8
RHINELANDER    CLOUDY    14   5  67 SW7       30.17F WCI   4
PHILLIPS       CLOUDY    15   6  66 S5        30.16F WCI   8
ANTIGO         CLOUDY    12   6  76 SW3       30.19F
TOMAHAWK       CLOUDY    13   6  73 CALM      30.18F
MERRILL        CLOUDY    14   7  73 CALM      30.21F
$$

WIZ013-073-310600-
NORTHEAST WISCONSIN

CITY           SKY/WX    TMP DP  RH WIND       PRES   REMARKS
IRON MOUNTAIN  CLOUDY    16   8  71 S3        30.19F
MARINETTE      CLOUDY    19  10  68 SW5       30.27F
OCONTO         CLOUDY    19  10  69 CALM      30.28F
$$

WIZ017-030-035>037-045-310600-
CENTRAL WISCONSIN

CITY           SKY/WX    TMP DP  RH WIND       PRES   REMARKS
MEDFORD        CLOUDY    15   6  70 S6        30.19F WCI   6
WAUSAU         CLOUDY    15   5  64 SW7       30.21F WCI   5
MOSINEE        CLOUDY    16   9  73 S6        30.22F WCI   7
MARSHFIELD     MOCLDY    16   5  62 S5        30.21F WCI   9
WISC RAPIDS    CLOUDY    15   5  64 S5        30.25F WCI   8
STEVENS POINT  CLOUDY    14   6  69 S5        30.23F WCI   7
WAUPACA        CLOUDY    15   8  73 SE3       30.27F
SHAWANO        CLOUDY    19   8  61 CALM      30.26F
CLINTONVILLE   CLOUDY    18   9  68 S3        30.26F
$$

WIZ038-039-048-051-310600-
FOX VALLEY

CITY           SKY/WX    TMP DP  RH WIND       PRES   REMARKS
NWS GREEN BAY  CLOUDY    19  12  74 S6        30.29F
APPLETON       MOCLDY    16   9  73 S5        30.28F WCI   9
OSHKOSH        PTCLDY    17   8  67 CALM      30.29R
FOND DU LAC    PTCLDY    18   8  65 SW3       30.29F
$$

WIZ022-050-052-310600-
EAST CENTRAL WISCONSIN

CITY           SKY/WX    TMP DP  RH WIND       PRES   REMARKS
STURGEON BAY   CLOUDY    19   9  63 SW9       30.29F WCI   9
MANITOWOC      CLOUDY    21  13  71 CALM      30.32S
SHEBOYGAN      MOCLDY    17  10  74 SW6       30.29F WCI   9
$$

LMZ563-521-522-541>543-310600-
LAKESHORE

STATION/POSITION TIME  TEMP    WIND        PRES    VSBY  WAVE
                       AIR SEA DIR/SP/G                  HT/PER
                 (UTC) (F)     (DEG/KT/KT) (MB)    (MI)  (FT/S)
SHEBOYGAN LKSHOR 0500   22     210/  8/  9 1027.6F
KEWAUNEE LKSHORE 0500   20     220/  5/  8 1025.3F
NORTHPORT PIER   0500   18     180/  3/  6 1025.4F
SISTER BAY LKSHO 0500   20     230/  8/  9   N/A
CHAMBERS ISLAND  0500   19     180/  4/ 10 1025.4F
MENOMINEE LKSHOR 0500   19     200/  4     1025.8F
$$


USA.gov is the U.S. government's official web portal to all federal, state and local government web resources and services.